TimeSAST,TemperatureF,Dew PointF,Humidity,Sea Level PressureIn,VisibilityMPH,Wind Direction,Wind SpeedMPH,Gust SpeedMPH,PrecipitationIn,Events,Conditions,WindDirDegrees,DateUTC
12:00 AM,59.0,46.4,63,29.89,-9999.0,WNW,2.3,-,N/A,,Clear,300,2013-08-27 22:00:00
1:00 AM,57.2,48.2,72,29.89,6.2,NNE,5.8,-,N/A,,Mostly Cloudy,20,2013-08-27 23:00:00
2:00 AM,56,47,63,29.88,12,SE,4.6,,,,,130,2013-08-28 00:00:00
2:00 AM,55.4,46.4,72,29.86,-9999.0,ESE,4.6,-,N/A,,Clear,110,2013-08-28 00:00:00
3:00 AM,57.2,50.0,77,29.89,6.2,South,8.1,-,N/A,,Mostly Cloudy,190,2013-08-28 01:00:00
4:00 AM,55.4,48.2,77,29.89,-9999.0,WSW,4.6,-,N/A,,Clear,250,2013-08-28 02:00:00
5:00 AM,55,51,82,29.87,6,SSE,6.7,,,,Mist,150,2013-08-28 03:00:00
5:00 AM,55.4,51.8,88,29.86,6.2,SSE,2.3,-,N/A,,Mostly Cloudy,150,2013-08-28 03:00:00
6:00 AM,53.6,51.8,94,29.86,4.3,Calm,Calm,-,N/A,,Mostly Cloudy,0,2013-08-28 04:00:00
7:00 AM,53.6,51.8,94,29.83,6.2,NNE,4.6,-,N/A,,Scattered Clouds,30,2013-08-28 05:00:00
8:00 AM,54,51,88,29.83,12,East,6.7,,,,Scattered Clouds,100,2013-08-28 06:00:00
8:00 AM,53.6,51.8,94,29.80,6.2,East,3.5,-,N/A,,Partly Cloudy,100,2013-08-28 06:00:00
9:00 AM,57.2,53.6,88,29.80,-9999.0,Variable,2.3,-,N/A,,Clear,0,2013-08-28 07:00:00
10:00 AM,59.0,53.6,82,29.80,-9999.0,SSW,3.5,-,N/A,,Clear,210,2013-08-28 08:00:00
11:00 AM,65,51,51,29.78,12,SSE,3.5,,,,Scattered Clouds,160,2013-08-28 09:00:00
11:00 AM,64.4,51.8,64,29.77,-9999.0,SSE,3.5,-,N/A,,Clear,160,2013-08-28 09:00:00
12:00 PM,69.8,48.2,46,29.74,6.2,NNW,15.0,-,N/A,,Partly Cloudy,330,2013-08-28 10:00:00
1:00 PM,73.4,48.2,41,29.71,6.2,NW,21.9,-,N/A,,Partly Cloudy,320,2013-08-28 11:00:00
2:00 PM,71,50,37,29.73,12,WSW,10.4,,,,Partly Cloudy,240,2013-08-28 12:00:00
2:00 PM,71.6,50.0,46,29.71,6.2,WSW,10.4,-,N/A,,Partly Cloudy,240,2013-08-28 12:00:00
3:00 PM,73.4,50.0,44,29.71,6.2,West,10.4,-,N/A,,Scattered Clouds,270,2013-08-28 13:00:00
4:00 PM,59.0,51.8,77,29.77,6.2,SSW,25.3,-,N/A,,Mostly Cloudy,210,2013-08-28 14:00:00
5:00 PM,57,53,81,29.81,12,SSW,17.9,,,,Mostly Cloudy,210,2013-08-28 15:00:00
5:00 PM,57.2,53.6,88,29.80,6.2,SSW,10.4,-,N/A,,Mostly Cloudy,210,2013-08-28 15:00:00
6:00 PM,55.4,51.8,88,29.80,6.2,South,5.8,-,N/A,,Mostly Cloudy,170,2013-08-28 16:00:00
7:00 PM,55.4,51.8,88,29.80,6.2,SE,5.8,-,N/A,,Mostly Cloudy,130,2013-08-28 17:00:00
8:00 PM,56,53,84,29.83,12,ESE,8.9,,,,Mostly Cloudy,110,2013-08-28 18:00:00
9:00 PM,55.4,51.8,88,29.83,-9999.0,SE,3.5,-,N/A,,Clear,130,2013-08-28 19:00:00
10:00 PM,55.4,51.8,88,29.83,6.2,Variable,1.2,-,N/A,,Partly Cloudy,0,2013-08-28 20:00:00
11:00 PM,55.4,51.8,88,29.83,6.2,Variable,2.3,-,N/A,,Overcast,0,2013-08-28 21:00:00